Time,TemperatureF,DewpointF,PressureIn,WindDirection,WindDirectionDegrees,WindSpeedMPH,WindSpeedGustMPH,Humidity,HourlyPrecipIn,Conditions,Clouds,dailyrainin,SoftwareType,DateUTC
2013-08-19 00:03:00,76.8,74.9,30.08,NNW,336,0.0,-999.0,94,0.00,,,1.37,Wunderground v.1.15,2013-08-19 04:03:00,
2013-08-19 00:08:00,76.7,74.8,30.08,NNW,336,0.0,-999.0,94,0.00,,,1.37,Wunderground v.1.15,2013-08-19 04:08:00,
2013-08-19 00:13:00,76.7,74.8,30.08,NNW,336,0.0,-999.0,94,0.00,,,1.37,Wunderground v.1.15,2013-08-19 04:13:00,
2013-08-19 00:18:00,76.6,74.7,30.07,NNW,336,0.0,-999.0,94,0.00,,,1.37,Wunderground v.1.15,2013-08-19 04:18:00,
2013-08-19 00:23:00,76.6,74.7,30.07,NNW,336,0.0,-999.0,94,0.00,,,1.37,Wunderground v.1.15,2013-08-19 04:23:00,
2013-08-19 00:28:00,76.6,74.7,30.07,NNW,336,0.0,-999.0,94,0.00,,,1.37,Wunderground v.1.15,2013-08-19 04:28:00,
2013-08-19 00:33:00,76.5,74.6,30.06,NNW,336,0.0,-999.0,94,0.00,,,1.37,Wunderground v.1.15,2013-08-19 04:33:00,
2013-08-19 00:38:00,76.4,74.5,30.06,ENE,64,0.0,-999.0,94,0.00,,,1.37,Wunderground v.1.15,2013-08-19 04:38:00,
2013-08-19 00:48:00,76.3,74.8,30.06,East,85,1.0,-999.0,95,0.00,,,1.37,Wunderground v.1.15,2013-08-19 04:48:00,
2013-08-19 00:53:00,76.3,74.8,30.05,NE,41,0.0,-999.0,95,0.00,,,0.00,Wunderground v.1.15,2013-08-19 04:53:00,
2013-08-19 00:58:00,76.3,74.8,30.05,ENE,72,0.0,-999.0,95,0.00,,,0.00,Wunderground v.1.15,2013-08-19 04:58:00,
2013-08-19 01:03:00,76.3,74.8,30.05,NE,37,0.0,-999.0,95,0.00,,,0.00,Wunderground v.1.15,2013-08-19 05:03:00,
2013-08-19 01:08:00,76.3,74.8,30.05,East,98,1.0,-999.0,95,0.00,,,0.00,Wunderground v.1.15,2013-08-19 05:08:00,
2013-08-19 01:18:00,76.3,74.8,30.05,East,90,0.0,-999.0,95,0.00,,,0.01,Wunderground v.1.15,2013-08-19 05:18:00,
2013-08-19 01:23:00,76.2,74.7,30.05,East,86,0.0,-999.0,95,0.00,,,0.01,Wunderground v.1.15,2013-08-19 05:23:00,
2013-08-19 01:28:00,76.2,74.7,30.05,East,84,0.0,-999.0,95,0.00,,,0.01,Wunderground v.1.15,2013-08-19 05:28:00,
2013-08-19 01:33:00,76.1,74.6,30.05,ENE,62,0.0,-999.0,95,0.00,,,0.01,Wunderground v.1.15,2013-08-19 05:33:00,
2013-08-19 01:38:00,76.1,74.6,30.05,North,360,0.0,-999.0,95,0.00,,,0.01,Wunderground v.1.15,2013-08-19 05:38:00,
2013-08-19 01:43:00,76.1,74.9,30.05,North,5,0.0,-999.0,96,0.00,,,0.01,Wunderground v.1.15,2013-08-19 05:43:00,
2013-08-19 01:48:00,76.1,74.9,30.05,NE,56,0.0,-999.0,96,0.00,,,0.01,Wunderground v.1.15,2013-08-19 05:48:00,
2013-08-19 01:53:00,76.2,75.0,30.05,North,5,0.0,-999.0,96,0.00,,,0.01,Wunderground v.1.15,2013-08-19 05:53:00,
2013-08-19 02:03:00,76.2,75.0,30.04,NE,36,0.0,-999.0,96,0.00,,,0.01,Wunderground v.1.15,2013-08-19 06:03:00,
2013-08-19 02:08:00,76.2,75.0,30.04,NNE,12,0.0,-999.0,96,0.00,,,0.01,Wunderground v.1.15,2013-08-19 06:08:00,
2013-08-19 02:13:00,76.2,75.0,30.03,North,9,0.0,-999.0,96,0.00,,,0.01,Wunderground v.1.15,2013-08-19 06:13:00,
2013-08-19 02:18:00,76.1,74.9,30.03,North,360,0.0,-999.0,96,0.00,,,0.01,Wunderground v.1.15,2013-08-19 06:18:00,
2013-08-19 02:23:00,76.1,74.9,30.03,ENE,64,0.0,-999.0,96,0.00,,,0.01,Wunderground v.1.15,2013-08-19 06:23:00,
2013-08-19 02:28:00,75.9,74.7,30.03,East,79,0.0,-999.0,96,0.00,,,0.01,Wunderground v.1.15,2013-08-19 06:28:00,
2013-08-19 02:38:00,75.8,74.6,30.03,ENE,68,0.0,-999.0,96,0.00,,,0.01,Wunderground v.1.15,2013-08-19 06:38:00,
2013-08-19 02:43:00,75.8,74.6,30.02,ENE,76,0.0,-999.0,96,0.00,,,0.01,Wunderground v.1.15,2013-08-19 06:43:00,
2013-08-19 02:48:00,75.8,74.6,30.02,NE,56,0.0,-999.0,96,0.00,,,0.01,Wunderground v.1.15,2013-08-19 06:48:00,
2013-08-19 02:53:00,75.8,74.6,30.02,NE,34,0.0,-999.0,96,0.00,,,0.01,Wunderground v.1.15,2013-08-19 06:53:00,
2013-08-19 02:58:00,75.8,74.6,30.01,NNE,30,1.0,-999.0,96,0.00,,,0.01,Wunderground v.1.15,2013-08-19 06:58:00,
2013-08-19 03:03:00,76.0,74.8,30.01,North,5,1.0,-999.0,96,0.00,,,0.01,Wunderground v.1.15,2013-08-19 07:03:00,
2013-08-19 03:08:00,76.1,74.9,30.01,East,94,0.0,-999.0,96,0.00,,,0.01,Wunderground v.1.15,2013-08-19 07:08:00,
2013-08-19 03:18:00,76.6,75.7,30.01,East,94,1.0,-999.0,97,0.00,,,0.01,Wunderground v.1.15,2013-08-19 07:18:00,
2013-08-19 03:23:00,76.8,75.9,30.00,NE,51,1.0,-999.0,97,0.00,,,0.01,Wunderground v.1.15,2013-08-19 07:23:00,
2013-08-19 03:28:00,77.0,76.1,30.00,East,80,1.0,-999.0,97,0.00,,,0.01,Wunderground v.1.15,2013-08-19 07:28:00,
2013-08-19 03:33:00,77.2,76.0,30.00,East,83,1.0,-999.0,96,0.00,,,0.01,Wunderground v.1.15,2013-08-19 07:33:00,
2013-08-19 03:38:00,77.4,76.2,29.99,East,86,1.0,-999.0,96,0.00,,,0.01,Wunderground v.1.15,2013-08-19 07:38:00,
2013-08-19 03:43:00,77.4,76.2,29.99,ESE,114,2.0,-999.0,96,0.00,,,0.01,Wunderground v.1.15,2013-08-19 07:43:00,
2013-08-19 03:48:00,77.5,76.3,29.99,East,81,3.0,-999.0,96,0.00,,,0.01,Wunderground v.1.15,2013-08-19 07:48:00,
2013-08-19 03:53:00,77.6,76.4,29.99,East,92,3.0,-999.0,96,0.00,,,0.01,Wunderground v.1.15,2013-08-19 07:53:00,
2013-08-19 03:58:00,77.6,76.1,29.98,East,96,3.0,-999.0,95,0.00,,,0.01,Wunderground v.1.15,2013-08-19 07:58:00,
2013-08-19 04:03:00,77.6,76.1,29.98,ESE,105,4.0,-999.0,95,0.00,,,0.01,Wunderground v.1.15,2013-08-19 08:03:00,
2013-08-19 04:08:00,77.7,76.2,29.98,East,88,6.0,-999.0,95,0.00,,,0.01,Wunderground v.1.15,2013-08-19 08:08:00,
2013-08-19 04:18:00,77.7,76.2,29.98,ESE,107,6.0,-999.0,95,0.00,,,0.01,Wunderground v.1.15,2013-08-19 08:18:00,
2013-08-19 04:23:00,77.6,76.1,29.98,ESE,103,6.0,-999.0,95,0.00,,,0.01,Wunderground v.1.15,2013-08-19 08:23:00,
2013-08-19 04:28:00,77.7,76.2,29.98,East,98,6.0,-999.0,95,0.00,,,0.01,Wunderground v.1.15,2013-08-19 08:28:00,
2013-08-19 04:33:00,77.6,76.1,29.98,East,93,5.0,-999.0,95,0.00,,,0.01,Wunderground v.1.15,2013-08-19 08:33:00,
2013-08-19 04:38:00,77.5,76.0,29.98,East,81,4.0,-999.0,95,0.00,,,0.01,Wunderground v.1.15,2013-08-19 08:38:00,
2013-08-19 04:43:00,77.6,76.4,29.97,East,79,4.0,-999.0,96,0.00,,,0.01,Wunderground v.1.15,2013-08-19 08:43:00,
2013-08-19 04:53:00,77.7,76.2,29.97,ESE,107,5.0,-999.0,95,0.00,,,0.01,Wunderground v.1.15,2013-08-19 08:53:00,
2013-08-19 04:58:00,77.8,76.6,29.97,ESE,105,5.0,-999.0,96,0.00,,,0.01,Wunderground v.1.15,2013-08-19 08:58:00,
2013-08-19 05:03:00,77.8,76.3,29.97,ESE,105,6.0,-999.0,95,0.00,,,0.01,Wunderground v.1.15,2013-08-19 09:03:00,
2013-08-19 05:08:00,77.8,76.3,29.97,East,91,7.0,-999.0,95,0.00,,,0.01,Wunderground v.1.15,2013-08-19 09:08:00,
2013-08-19 05:13:00,77.8,76.3,29.97,East,98,6.0,-999.0,95,0.00,,,0.01,Wunderground v.1.15,2013-08-19 09:13:00,
2013-08-19 05:18:00,77.9,76.0,29.97,East,92,5.0,-999.0,94,0.00,,,0.01,Wunderground v.1.15,2013-08-19 09:18:00,
2013-08-19 05:23:00,77.9,76.0,29.97,ESE,105,5.0,-999.0,94,0.00,,,0.01,Wunderground v.1.15,2013-08-19 09:23:00,
2013-08-19 05:33:00,78.0,76.1,29.97,ESE,105,5.0,-999.0,94,0.00,,,0.01,Wunderground v.1.15,2013-08-19 09:33:00,
2013-08-19 05:38:00,78.0,76.1,29.97,ENE,71,5.0,-999.0,94,0.00,,,0.01,Wunderground v.1.15,2013-08-19 09:38:00,
2013-08-19 05:43:00,77.8,75.6,29.97,East,94,4.0,-999.0,93,0.00,,,0.01,Wunderground v.1.15,2013-08-19 09:43:00,
2013-08-19 05:48:00,77.9,76.0,29.97,East,101,4.0,-999.0,94,0.00,,,0.01,Wunderground v.1.15,2013-08-19 09:48:00,
2013-08-19 05:53:00,77.9,75.7,29.97,ENE,75,4.0,-999.0,93,0.00,,,0.01,Wunderground v.1.15,2013-08-19 09:53:00,
2013-08-19 05:58:00,78.0,75.8,29.98,ESE,106,6.0,-999.0,93,0.00,,,0.01,Wunderground v.1.15,2013-08-19 09:58:00,
2013-08-19 06:03:00,78.0,75.8,29.98,East,101,6.0,-999.0,93,0.00,,,0.01,Wunderground v.1.15,2013-08-19 10:03:00,
2013-08-19 06:08:00,77.9,75.4,29.98,East,80,4.0,-999.0,92,0.00,,,0.01,Wunderground v.1.15,2013-08-19 10:08:00,
2013-08-19 06:13:00,77.8,75.3,29.98,East,96,3.0,-999.0,92,0.00,,,0.01,Wunderground v.1.15,2013-08-19 10:13:00,
2013-08-19 06:18:00,77.7,75.2,29.98,East,90,3.0,-999.0,92,0.00,,,0.01,Wunderground v.1.15,2013-08-19 10:18:00,
2013-08-19 06:23:00,77.6,75.1,29.98,East,90,2.0,-999.0,92,0.00,,,0.01,Wunderground v.1.15,2013-08-19 10:23:00,
2013-08-19 06:33:00,77.6,75.1,29.98,ESE,119,2.0,-999.0,92,0.00,,,0.01,Wunderground v.1.15,2013-08-19 10:33:00,
2013-08-19 06:38:00,77.5,75.0,29.98,East,95,2.0,-999.0,92,0.00,,,0.01,Wunderground v.1.15,2013-08-19 10:38:00,
2013-08-19 06:43:00,77.5,75.0,29.99,East,83,2.0,-999.0,92,0.00,,,0.01,Wunderground v.1.15,2013-08-19 10:43:00,
2013-08-19 06:53:00,77.5,75.0,29.99,East,80,3.0,-999.0,92,0.00,,,0.01,Wunderground v.1.15,2013-08-19 10:53:00,
2013-08-19 06:58:00,77.5,75.0,29.99,East,92,2.0,-999.0,92,0.00,,,0.01,Wunderground v.1.15,2013-08-19 10:58:00,
2013-08-19 07:08:00,77.5,74.7,29.99,ESE,109,2.0,-999.0,91,0.00,,,0.01,Wunderground v.1.15,2013-08-19 11:08:00,
2013-08-19 07:13:00,77.5,75.0,29.99,ESE,102,3.0,-999.0,92,0.00,,,0.01,Wunderground v.1.15,2013-08-19 11:13:00,
2013-08-19 07:18:00,77.6,75.1,29.99,East,95,3.0,-999.0,92,0.00,,,0.01,Wunderground v.1.15,2013-08-19 11:18:00,
2013-08-19 07:23:00,77.6,75.1,29.99,East,85,3.0,-999.0,92,0.00,,,0.01,Wunderground v.1.15,2013-08-19 11:23:00,
2013-08-19 07:28:00,77.7,75.2,29.99,ESE,102,4.0,-999.0,92,0.00,,,0.01,Wunderground v.1.15,2013-08-19 11:28:00,
2013-08-19 07:33:00,77.8,75.3,30.00,ESE,103,3.0,-999.0,92,0.00,,,0.01,Wunderground v.1.15,2013-08-19 11:33:00,
2013-08-19 07:38:00,77.8,75.0,30.00,East,98,3.0,-999.0,91,0.00,,,0.01,Wunderground v.1.15,2013-08-19 11:38:00,
2013-08-19 07:48:00,78.0,75.2,30.00,East,87,2.0,-999.0,91,0.00,,,0.01,Wunderground v.1.15,2013-08-19 11:48:00,
2013-08-19 07:53:00,78.1,75.3,30.01,East,100,2.0,-999.0,91,0.00,,,0.01,Wunderground v.1.15,2013-08-19 11:53:00,
2013-08-19 07:58:00,78.2,75.0,30.01,East,98,2.0,-999.0,90,0.00,,,0.01,Wunderground v.1.15,2013-08-19 11:58:00,
2013-08-19 08:03:00,78.6,75.4,30.01,East,86,3.0,-999.0,90,0.00,,,0.01,Wunderground v.1.15,2013-08-19 12:03:00,
2013-08-19 08:08:00,79.0,75.5,30.01,East,99,4.0,-999.0,89,0.00,,,0.01,Wunderground v.1.15,2013-08-19 12:08:00,
2013-08-19 08:18:00,79.7,76.2,30.01,East,91,4.0,-999.0,89,0.00,,,0.01,Wunderground v.1.15,2013-08-19 12:18:00,
2013-08-19 08:23:00,80.1,76.6,30.01,ESE,105,4.0,-999.0,89,0.00,,,0.01,Wunderground v.1.15,2013-08-19 12:23:00,
2013-08-19 08:28:00,80.4,76.5,30.01,ESE,105,3.0,-999.0,88,0.00,,,0.01,Wunderground v.1.15,2013-08-19 12:28:00,
2013-08-19 08:33:00,80.6,76.7,30.02,East,79,3.0,-999.0,88,0.00,,,0.01,Wunderground v.1.15,2013-08-19 12:33:00,
2013-08-19 08:38:00,80.6,76.7,30.01,East,88,3.0,-999.0,88,0.00,,,0.01,Wunderground v.1.15,2013-08-19 12:38:00,
2013-08-19 08:48:00,80.9,77.0,30.02,East,98,4.0,-999.0,88,0.00,,,0.01,Wunderground v.1.15,2013-08-19 12:48:00,
2013-08-19 08:53:00,81.2,77.0,30.02,East,95,4.0,-999.0,87,0.00,,,0.01,Wunderground v.1.15,2013-08-19 12:53:00,
2013-08-19 08:58:00,81.4,77.5,30.02,East,96,4.0,-999.0,88,0.00,,,0.01,Wunderground v.1.15,2013-08-19 12:58:00,
2013-08-19 09:03:00,81.6,77.4,30.02,East,94,3.0,-999.0,87,0.00,,,0.01,Wunderground v.1.15,2013-08-19 13:03:00,
2013-08-19 09:08:00,82.0,77.7,30.02,East,95,2.0,-999.0,87,0.00,,,0.01,Wunderground v.1.15,2013-08-19 13:08:00,
2013-08-19 09:13:00,82.2,77.9,30.02,ESE,106,3.0,-999.0,87,0.00,,,0.01,Wunderground v.1.15,2013-08-19 13:13:00,
2013-08-19 09:23:00,82.5,77.9,30.02,East,91,4.0,-999.0,86,0.00,,,0.01,Wunderground v.1.15,2013-08-19 13:23:00,
2013-08-19 09:28:00,82.7,77.7,30.02,East,101,4.0,-999.0,85,0.00,,,0.01,Wunderground v.1.15,2013-08-19 13:28:00,
2013-08-19 09:33:00,83.1,78.1,30.02,East,90,4.0,-999.0,85,0.00,,,0.01,Wunderground v.1.15,2013-08-19 13:33:00,
2013-08-19 09:38:00,83.5,78.5,30.03,ESE,103,3.0,-999.0,85,0.00,,,0.01,Wunderground v.1.15,2013-08-19 13:38:00,
2013-08-19 09:43:00,83.8,78.4,30.02,East,98,3.0,-999.0,84,0.00,,,0.01,Wunderground v.1.15,2013-08-19 13:43:00,
2013-08-19 09:48:00,84.1,78.4,30.02,East,83,5.0,-999.0,83,0.00,,,0.01,Wunderground v.1.15,2013-08-19 13:48:00,
2013-08-19 09:53:00,84.2,78.5,30.02,ESE,106,6.0,-999.0,83,0.00,,,0.01,Wunderground v.1.15,2013-08-19 13:53:00,
2013-08-19 09:58:00,84.4,78.3,30.03,East,95,6.0,-999.0,82,0.00,,,0.01,Wunderground v.1.15,2013-08-19 13:58:00,
2013-08-19 10:03:00,84.6,78.1,30.03,ESE,105,6.0,-999.0,81,0.00,,,0.01,Wunderground v.1.15,2013-08-19 14:03:00,
2013-08-19 10:08:00,85.0,78.5,30.03,ESE,106,6.0,-999.0,81,0.00,,,0.01,Wunderground v.1.15,2013-08-19 14:08:00,
2013-08-19 10:13:00,85.2,77.6,30.03,ESE,107,6.0,-999.0,78,0.00,,,0.01,Wunderground v.1.15,2013-08-19 14:13:00,
2013-08-19 10:18:00,85.4,78.1,30.03,East,98,6.0,-999.0,79,0.00,,,0.01,Wunderground v.1.15,2013-08-19 14:18:00,
2013-08-19 10:28:00,85.7,77.7,30.03,East,95,6.0,-999.0,77,0.00,,,0.01,Wunderground v.1.15,2013-08-19 14:28:00,
2013-08-19 10:33:00,85.7,76.9,30.03,ESE,105,6.0,-999.0,75,0.00,,,0.01,Wunderground v.1.15,2013-08-19 14:33:00,
2013-08-19 10:38:00,86.0,78.7,30.03,ESE,109,6.0,-999.0,79,0.00,,,0.01,Wunderground v.1.15,2013-08-19 14:38:00,
2013-08-19 10:43:00,86.2,77.7,30.03,East,99,6.0,-999.0,76,0.00,,,0.01,Wunderground v.1.15,2013-08-19 14:43:00,
2013-08-19 10:53:00,86.6,77.7,30.03,ESE,108,5.0,-999.0,75,0.00,,,0.01,Wunderground v.1.15,2013-08-19 14:53:00,
2013-08-19 10:58:00,87.0,78.1,30.03,East,98,5.0,-999.0,75,0.00,,,0.01,Wunderground v.1.15,2013-08-19 14:58:00,
2013-08-19 11:03:00,86.8,78.3,30.03,SE,125,5.0,-999.0,76,0.00,,,0.01,Wunderground v.1.15,2013-08-19 15:03:00,
2013-08-19 11:08:00,86.5,77.6,30.03,East,90,5.0,-999.0,75,0.00,,,0.01,Wunderground v.1.15,2013-08-19 15:08:00,
2013-08-19 11:13:00,86.4,77.9,30.03,East,98,5.0,-999.0,76,0.00,,,0.01,Wunderground v.1.15,2013-08-19 15:13:00,
2013-08-19 11:18:00,86.6,77.7,30.03,SE,133,5.0,-999.0,75,0.00,,,0.01,Wunderground v.1.15,2013-08-19 15:18:00,
2013-08-19 11:28:00,86.6,77.7,30.04,ESE,105,6.0,-999.0,75,0.00,,,0.01,Wunderground v.1.15,2013-08-19 15:28:00,
2013-08-19 11:38:00,86.9,77.2,30.03,SE,128,5.0,-999.0,73,0.00,,,0.01,Wunderground v.1.15,2013-08-19 15:38:00,
2013-08-19 11:43:00,87.0,78.1,30.03,East,94,5.0,-999.0,75,0.00,,,0.01,Wunderground v.1.15,2013-08-19 15:43:00,
2013-08-19 11:48:00,87.5,77.4,30.03,ESE,123,5.0,-999.0,72,0.00,,,0.01,Wunderground v.1.15,2013-08-19 15:48:00,
2013-08-19 11:53:00,87.8,77.6,30.03,ESE,113,5.0,-999.0,72,0.00,,,0.01,Wunderground v.1.15,2013-08-19 15:53:00,
2013-08-19 11:58:00,88.0,77.8,30.03,ESE,105,5.0,-999.0,72,0.00,,,0.01,Wunderground v.1.15,2013-08-19 15:58:00,
2013-08-19 12:03:00,88.3,78.1,30.03,ESE,109,4.0,-999.0,72,0.00,,,0.01,Wunderground v.1.15,2013-08-19 16:03:00,
2013-08-19 12:13:00,88.6,77.6,30.03,NE,45,2.0,-999.0,70,0.00,,,0.01,Wunderground v.1.15,2013-08-19 16:13:00,
2013-08-19 12:18:00,88.7,78.1,30.03,ENE,69,1.0,-999.0,71,0.00,,,0.01,Wunderground v.1.15,2013-08-19 16:18:00,
2013-08-19 12:23:00,88.8,77.7,30.02,ESE,107,2.0,-999.0,70,0.00,,,0.01,Wunderground v.1.15,2013-08-19 16:23:00,
2013-08-19 12:28:00,89.0,77.5,30.02,ESE,105,3.0,-999.0,69,0.00,,,0.01,Wunderground v.1.15,2013-08-19 16:28:00,
2013-08-19 12:33:00,89.0,77.5,30.02,ESE,111,3.0,-999.0,69,0.00,,,0.01,Wunderground v.1.15,2013-08-19 16:33:00,
2013-08-19 12:38:00,88.8,76.9,30.02,ESE,109,4.0,-999.0,68,0.00,,,0.01,Wunderground v.1.15,2013-08-19 16:38:00,
2013-08-19 12:48:00,88.7,78.1,30.01,East,79,3.0,-999.0,71,0.00,,,0.01,Wunderground v.1.15,2013-08-19 16:48:00,
2013-08-19 12:53:00,89.0,77.9,30.01,NNW,340,2.0,-999.0,70,0.00,,,0.01,Wunderground v.1.15,2013-08-19 16:53:00,
2013-08-19 12:58:00,89.6,77.2,30.01,ENE,73,3.0,-999.0,67,0.00,,,0.01,Wunderground v.1.15,2013-08-19 16:58:00,
2013-08-19 13:03:00,90.0,77.6,30.01,ESE,103,5.0,-999.0,67,0.00,,,0.01,Wunderground v.1.15,2013-08-19 17:03:00,
2013-08-19 13:08:00,90.1,76.3,30.01,East,97,6.0,-999.0,64,0.00,,,0.01,Wunderground v.1.15,2013-08-19 17:08:00,
2013-08-19 13:13:00,90.4,76.6,30.01,East,98,6.0,-999.0,64,0.00,,,0.01,Wunderground v.1.15,2013-08-19 17:13:00,
2013-08-19 13:23:00,90.7,75.9,30.00,ESE,119,5.0,-999.0,62,0.00,,,0.01,Wunderground v.1.15,2013-08-19 17:23:00,
2013-08-19 13:28:00,90.4,75.6,30.00,ESE,106,5.0,-999.0,62,0.00,,,0.01,Wunderground v.1.15,2013-08-19 17:28:00,
2013-08-19 13:33:00,89.8,76.0,30.00,ENE,78,4.0,-999.0,64,0.00,,,0.01,Wunderground v.1.15,2013-08-19 17:33:00,
2013-08-19 13:38:00,89.5,76.2,30.00,East,101,3.0,-999.0,65,0.00,,,0.01,Wunderground v.1.15,2013-08-19 17:38:00,
2013-08-19 13:48:00,89.5,77.5,30.00,ESE,109,1.0,-999.0,68,0.00,,,0.01,Wunderground v.1.15,2013-08-19 17:48:00,
2013-08-19 13:58:00,89.4,75.6,30.00,East,99,3.0,-999.0,64,0.00,,,0.01,Wunderground v.1.15,2013-08-19 17:58:00,
2013-08-19 14:03:00,89.3,76.4,30.00,East,96,2.0,-999.0,66,0.00,,,0.01,Wunderground v.1.15,2013-08-19 18:03:00,
2013-08-19 14:08:00,89.2,75.9,30.00,ESE,109,1.0,-999.0,65,0.00,,,0.01,Wunderground v.1.15,2013-08-19 18:08:00,
2013-08-19 14:13:00,89.0,75.7,30.00,East,91,1.0,-999.0,65,0.00,,,0.01,Wunderground v.1.15,2013-08-19 18:13:00,
2013-08-19 14:23:00,88.3,77.7,29.99,East,84,2.0,-999.0,71,0.00,,,0.01,Wunderground v.1.15,2013-08-19 18:23:00,
2013-08-19 14:28:00,87.4,77.3,29.99,North,11,2.0,-999.0,72,0.00,,,0.01,Wunderground v.1.15,2013-08-19 18:28:00,
2013-08-19 14:33:00,86.8,76.7,29.99,ENE,65,1.0,-999.0,72,0.00,,,0.01,Wunderground v.1.15,2013-08-19 18:33:00,
2013-08-19 14:38:00,86.8,77.9,29.98,East,94,1.0,-999.0,75,0.00,,,0.01,Wunderground v.1.15,2013-08-19 18:38:00,
2013-08-19 14:43:00,87.4,78.9,29.98,ESE,113,1.0,-999.0,76,0.00,,,0.01,Wunderground v.1.15,2013-08-19 18:43:00,
2013-08-19 14:48:00,88.2,78.9,29.98,ENE,78,2.0,-999.0,74,0.00,,,0.01,Wunderground v.1.15,2013-08-19 18:48:00,
2013-08-19 14:58:00,88.4,77.8,29.97,ESE,102,3.0,-999.0,71,0.00,,,0.01,Wunderground v.1.15,2013-08-19 18:58:00,
2013-08-19 15:03:00,88.1,77.5,29.98,ESE,107,3.0,-999.0,71,0.00,,,0.01,Wunderground v.1.15,2013-08-19 19:03:00,
2013-08-19 15:08:00,87.7,78.4,29.98,East,97,3.0,-999.0,74,0.00,,,0.01,Wunderground v.1.15,2013-08-19 19:08:00,
2013-08-19 15:13:00,87.5,77.8,29.98,East,86,3.0,-999.0,73,0.00,,,0.01,Wunderground v.1.15,2013-08-19 19:13:00,
2013-08-19 15:18:00,87.1,77.0,29.98,East,86,2.0,-999.0,72,0.00,,,0.01,Wunderground v.1.15,2013-08-19 19:18:00,
2013-08-19 15:23:00,86.8,77.5,29.97,East,98,1.0,-999.0,74,0.00,,,0.01,Wunderground v.1.15,2013-08-19 19:23:00,
2013-08-19 15:28:00,86.6,77.3,29.97,SE,136,2.0,-999.0,74,0.00,,,0.01,Wunderground v.1.15,2013-08-19 19:28:00,
2013-08-19 15:33:00,85.9,76.2,29.97,SE,126,3.0,-999.0,73,0.00,,,0.01,Wunderground v.1.15,2013-08-19 19:33:00,
2013-08-19 15:38:00,84.7,76.3,29.97,SE,130,5.0,-999.0,76,0.00,,,0.01,Wunderground v.1.15,2013-08-19 19:38:00,
2013-08-19 15:43:00,83.8,76.6,29.97,East,98,4.0,-999.0,79,0.00,,,0.01,Wunderground v.1.15,2013-08-19 19:43:00,
2013-08-19 15:48:00,83.3,76.9,29.97,SSW,204,3.0,-999.0,81,0.00,,,0.01,Wunderground v.1.15,2013-08-19 19:48:00,
2013-08-19 15:53:00,83.1,76.7,29.97,NW,324,1.0,-999.0,81,0.00,,,0.01,Wunderground v.1.15,2013-08-19 19:53:00,
2013-08-19 15:58:00,83.1,77.8,29.97,NW,325,1.0,-999.0,84,0.00,,,0.01,Wunderground v.1.15,2013-08-19 19:58:00,
2013-08-19 16:03:00,83.2,78.2,29.97,NW,325,0.0,-999.0,85,0.26,,,0.04,Wunderground v.1.15,2013-08-19 20:03:00,
2013-08-19 16:08:00,83.0,77.7,29.96,ESE,109,0.0,-999.0,84,0.12,,,0.05,Wunderground v.1.15,2013-08-19 20:08:00,
2013-08-19 16:13:00,82.5,77.5,29.96,East,99,2.0,-999.0,85,0.06,,,0.05,Wunderground v.1.15,2013-08-19 20:13:00,
2013-08-19 16:18:00,82.1,77.8,29.95,East,99,2.0,-999.0,87,0.04,,,0.05,Wunderground v.1.15,2013-08-19 20:18:00,
2013-08-19 16:28:00,82.3,77.7,29.96,SSW,193,0.0,-999.0,86,0.00,,,0.05,Wunderground v.1.15,2013-08-19 20:28:00,
2013-08-19 16:33:00,82.8,78.2,29.97,WSW,254,1.0,-999.0,86,0.00,,,0.05,Wunderground v.1.15,2013-08-19 20:33:00,
2013-08-19 16:38:00,83.0,78.4,29.97,WSW,251,3.0,-999.0,86,0.00,,,0.05,Wunderground v.1.15,2013-08-19 20:38:00,
2013-08-19 16:43:00,82.9,77.2,29.97,WSW,245,4.0,-999.0,83,0.00,,,0.05,Wunderground v.1.15,2013-08-19 20:43:00,
2013-08-19 16:48:00,82.8,76.7,29.98,ESE,110,3.0,-999.0,82,0.00,,,0.05,Wunderground v.1.15,2013-08-19 20:48:00,
2013-08-19 16:58:00,81.8,75.4,29.97,SW,233,4.0,-999.0,81,0.00,,,0.05,Wunderground v.1.15,2013-08-19 20:58:00,
2013-08-19 17:03:00,81.8,76.1,29.96,SW,230,3.0,-999.0,83,0.00,,,0.05,Wunderground v.1.15,2013-08-19 21:03:00,
2013-08-19 17:08:00,82.0,75.6,29.96,SSW,213,3.0,-999.0,81,0.00,,,0.05,Wunderground v.1.15,2013-08-19 21:08:00,
2013-08-19 17:18:00,82.5,75.7,29.98,West,272,4.0,-999.0,80,0.00,,,0.05,Wunderground v.1.15,2013-08-19 21:18:00,
2013-08-19 17:28:00,82.0,76.0,29.99,SSW,198,5.0,-999.0,82,0.00,,,0.05,Wunderground v.1.15,2013-08-19 21:28:00,
2013-08-19 17:33:00,81.6,75.9,29.98,ESE,121,5.0,-999.0,83,0.00,,,0.05,Wunderground v.1.15,2013-08-19 21:33:00,
2013-08-19 17:38:00,80.9,76.3,30.00,South,180,6.0,-999.0,86,0.00,,,0.05,Wunderground v.1.15,2013-08-19 21:38:00,
2013-08-19 17:43:00,79.1,74.9,30.00,SE,138,8.0,-999.0,87,0.23,,,0.07,Wunderground v.1.15,2013-08-19 21:43:00,
2013-08-19 17:48:00,78.0,74.2,30.00,South,180,8.0,-999.0,88,0.08,,,0.07,Wunderground v.1.15,2013-08-19 21:48:00,
2013-08-19 17:53:00,77.3,74.5,30.01,ESE,121,6.0,-999.0,91,0.25,,,0.09,Wunderground v.1.15,2013-08-19 21:53:00,
2013-08-19 17:58:00,76.5,74.3,30.00,ESE,118,6.0,-999.0,93,3.18,,,0.25,Wunderground v.1.15,2013-08-19 21:58:00,
2013-08-19 18:03:00,76.3,74.4,30.00,East,84,5.0,-999.0,94,1.46,,,0.35,Wunderground v.1.15,2013-08-19 22:03:00,
2013-08-19 18:13:00,76.1,74.6,29.98,SSW,205,1.0,-999.0,95,0.39,,,0.47,Wunderground v.1.15,2013-08-19 22:13:00,
2013-08-19 18:18:00,76.0,74.5,29.99,South,179,1.0,-999.0,95,0.16,,,0.49,Wunderground v.1.15,2013-08-19 22:18:00,
2013-08-19 18:23:00,76.1,74.6,29.99,South,179,0.0,-999.0,95,0.10,,,0.49,Wunderground v.1.15,2013-08-19 22:23:00,
2013-08-19 18:28:00,76.1,74.6,29.99,ESE,103,0.0,-999.0,95,0.05,,,0.49,Wunderground v.1.15,2013-08-19 22:28:00,
2013-08-19 18:33:00,75.9,74.4,29.99,East,96,2.0,-999.0,95,0.04,,,0.49,Wunderground v.1.15,2013-08-19 22:33:00,
2013-08-19 18:38:00,75.7,74.2,29.99,East,92,2.0,-999.0,95,0.00,,,0.49,Wunderground v.1.15,2013-08-19 22:38:00,
2013-08-19 18:48:00,75.7,74.5,29.99,SE,135,0.0,-999.0,96,0.00,,,0.49,Wunderground v.1.15,2013-08-19 22:48:00,
2013-08-19 18:53:00,75.8,74.6,30.00,ESE,121,1.0,-999.0,96,0.00,,,0.49,Wunderground v.1.15,2013-08-19 22:53:00,
2013-08-19 18:58:00,75.9,74.7,30.01,ESE,121,2.0,-999.0,96,0.00,,,0.49,Wunderground v.1.15,2013-08-19 22:58:00,
2013-08-19 19:03:00,75.9,74.7,30.01,ESE,121,1.0,-999.0,96,0.00,,,0.49,Wunderground v.1.15,2013-08-19 23:03:00,
2013-08-19 19:08:00,76.0,74.8,30.01,SE,134,1.0,-999.0,96,0.00,,,0.49,Wunderground v.1.15,2013-08-19 23:08:00,
2013-08-19 19:18:00,76.0,74.5,30.00,West,259,1.0,-999.0,95,0.00,,,0.49,Wunderground v.1.15,2013-08-19 23:18:00,
2013-08-19 19:23:00,76.0,74.8,30.00,West,259,0.0,-999.0,96,0.00,,,0.49,Wunderground v.1.15,2013-08-19 23:23:00,
2013-08-19 19:28:00,76.0,74.8,30.00,West,259,0.0,-999.0,96,0.00,,,0.49,Wunderground v.1.15,2013-08-19 23:28:00,
2013-08-19 19:38:00,76.1,74.9,29.99,NNW,337,0.0,-999.0,96,0.00,,,0.49,Wunderground v.1.15,2013-08-19 23:38:00,
2013-08-19 19:43:00,76.1,74.9,29.98,NW,321,0.0,-999.0,96,0.00,,,0.49,Wunderground v.1.15,2013-08-19 23:43:00,
2013-08-19 19:53:00,75.8,74.6,29.98,NNW,348,0.0,-999.0,96,0.00,,,0.49,Wunderground v.1.15,2013-08-19 23:53:00,
2013-08-19 19:58:00,75.7,74.5,29.99,North,351,0.0,-999.0,96,0.00,,,0.49,Wunderground v.1.15,2013-08-19 23:58:00,
2013-08-19 20:03:00,75.7,74.5,29.99,North,355,0.0,-999.0,96,0.00,,,0.49,Wunderground v.1.15,2013-08-20 00:03:00,
2013-08-19 20:08:00,75.7,74.5,29.99,NNE,18,0.0,-999.0,96,0.00,,,0.49,Wunderground v.1.15,2013-08-20 00:08:00,
2013-08-19 20:13:00,75.6,74.4,30.00,East,84,1.0,-999.0,96,0.00,,,0.49,Wunderground v.1.15,2013-08-20 00:13:00,
2013-08-19 20:18:00,75.5,74.3,30.00,ENE,71,1.0,-999.0,96,0.00,,,0.49,Wunderground v.1.15,2013-08-20 00:18:00,
2013-08-19 20:28:00,75.5,74.3,30.00,East,100,0.0,-999.0,96,0.00,,,0.49,Wunderground v.1.15,2013-08-20 00:28:00,
2013-08-19 20:33:00,75.4,74.2,30.00,NE,46,0.0,-999.0,96,0.00,,,0.49,Wunderground v.1.15,2013-08-20 00:33:00,
2013-08-19 20:38:00,75.3,74.1,30.00,NNW,327,1.0,-999.0,96,0.00,,,0.49,Wunderground v.1.15,2013-08-20 00:38:00,
2013-08-19 20:48:00,75.3,74.1,30.00,NNW,338,0.0,-999.0,96,0.00,,,0.49,Wunderground v.1.15,2013-08-20 00:48:00,
2013-08-19 20:53:00,75.2,74.0,30.00,NNW,338,0.0,-999.0,96,0.00,,,0.49,Wunderground v.1.15,2013-08-20 00:53:00,
2013-08-19 20:58:00,75.3,74.1,30.00,NNW,339,0.0,-999.0,96,0.00,,,0.49,Wunderground v.1.15,2013-08-20 00:58:00,
2013-08-19 21:08:00,75.2,74.0,30.00,NNW,338,0.0,-999.0,96,0.00,,,0.49,Wunderground v.1.15,2013-08-20 01:08:00,
2013-08-19 21:13:00,75.2,74.0,30.00,NNW,339,0.0,-999.0,96,0.00,,,0.49,Wunderground v.1.15,2013-08-20 01:13:00,
2013-08-19 21:18:00,75.1,73.9,30.00,NNW,338,0.0,-999.0,96,0.00,,,0.49,Wunderground v.1.15,2013-08-20 01:18:00,
2013-08-19 21:23:00,75.1,73.9,30.00,NNW,339,0.0,-999.0,96,0.00,,,0.49,Wunderground v.1.15,2013-08-20 01:23:00,
2013-08-19 21:28:00,75.0,73.8,30.00,NNW,338,0.0,-999.0,96,0.00,,,0.49,Wunderground v.1.15,2013-08-20 01:28:00,
2013-08-19 21:33:00,74.9,73.4,29.99,NNW,338,0.0,-999.0,95,0.00,,,0.49,Wunderground v.1.15,2013-08-20 01:33:00,
2013-08-19 21:38:00,74.9,73.7,29.99,NNW,339,0.0,-999.0,96,0.00,,,0.49,Wunderground v.1.15,2013-08-20 01:38:00,
2013-08-19 21:48:00,74.8,73.6,30.00,NNW,339,0.0,-999.0,96,0.00,,,0.49,Wunderground v.1.15,2013-08-20 01:48:00,
2013-08-19 21:53:00,74.8,73.6,30.00,NNW,338,0.0,-999.0,96,0.00,,,0.49,Wunderground v.1.15,2013-08-20 01:53:00,
2013-08-19 21:58:00,74.8,73.3,30.00,NNW,339,0.0,-999.0,95,0.00,,,0.49,Wunderground v.1.15,2013-08-20 01:58:00,
2013-08-19 22:03:00,74.7,73.2,30.00,NNW,339,0.0,-999.0,95,0.00,,,0.49,Wunderground v.1.15,2013-08-20 02:03:00,
2013-08-19 22:08:00,74.8,73.6,30.00,NNW,339,1.0,-999.0,96,0.00,,,0.49,Wunderground v.1.15,2013-08-20 02:08:00,
2013-08-19 22:13:00,74.8,73.3,30.01,NNW,339,1.0,-999.0,95,0.00,,,0.49,Wunderground v.1.15,2013-08-20 02:13:00,
2013-08-19 22:23:00,74.8,73.3,30.01,NNW,339,0.0,-999.0,95,0.00,,,0.49,Wunderground v.1.15,2013-08-20 02:23:00,
2013-08-19 22:28:00,74.8,73.3,30.01,NNW,339,0.0,-999.0,95,0.00,,,0.49,Wunderground v.1.15,2013-08-20 02:28:00,
2013-08-19 22:33:00,74.8,73.3,30.01,NNW,339,0.0,-999.0,95,0.00,,,0.49,Wunderground v.1.15,2013-08-20 02:33:00,
2013-08-19 22:38:00,74.7,73.2,30.01,NNW,339,0.0,-999.0,95,0.00,,,0.49,Wunderground v.1.15,2013-08-20 02:38:00,
2013-08-19 22:43:00,74.7,73.2,30.02,NNW,338,0.0,-999.0,95,0.00,,,0.49,Wunderground v.1.15,2013-08-20 02:43:00,
2013-08-19 22:48:00,74.6,73.1,30.02,NNW,339,0.0,-999.0,95,0.00,,,0.49,Wunderground v.1.15,2013-08-20 02:48:00,
2013-08-19 22:53:00,74.5,73.0,30.02,NNW,339,0.0,-999.0,95,0.00,,,0.49,Wunderground v.1.15,2013-08-20 02:53:00,
2013-08-19 22:58:00,74.3,72.8,30.03,NNW,336,1.0,-999.0,95,0.00,,,0.49,Wunderground v.1.15,2013-08-20 02:58:00,
2013-08-19 23:03:00,74.3,72.8,30.03,NNW,336,1.0,-999.0,95,0.00,,,0.49,Wunderground v.1.15,2013-08-20 03:03:00,
2013-08-19 23:08:00,74.3,72.8,30.03,NNW,336,0.0,-999.0,95,0.00,,,0.49,Wunderground v.1.15,2013-08-20 03:08:00,
2013-08-19 23:13:00,74.4,72.9,30.03,NNW,336,0.0,-999.0,95,0.00,,,0.49,Wunderground v.1.15,2013-08-20 03:13:00,
2013-08-19 23:18:00,74.4,73.2,30.03,NNW,336,0.0,-999.0,96,0.00,,,0.49,Wunderground v.1.15,2013-08-20 03:18:00,
2013-08-19 23:28:00,74.5,73.3,30.04,NNW,334,0.0,-999.0,96,0.00,,,0.49,Wunderground v.1.15,2013-08-20 03:28:00,
2013-08-19 23:33:00,74.5,73.3,30.04,NNW,334,0.0,-999.0,96,0.00,,,0.49,Wunderground v.1.15,2013-08-20 03:33:00,
2013-08-19 23:38:00,74.5,73.3,30.04,NNW,335,0.0,-999.0,96,0.00,,,0.49,Wunderground v.1.15,2013-08-20 03:38:00,
2013-08-19 23:43:00,74.5,73.3,30.04,NNW,334,0.0,-999.0,96,0.00,,,0.49,Wunderground v.1.15,2013-08-20 03:43:00,
2013-08-19 23:48:00,74.5,73.3,30.04,NNW,335,0.0,-999.0,96,0.00,,,0.49,Wunderground v.1.15,2013-08-20 03:48:00,
2013-08-19 23:53:00,74.5,73.3,30.04,NNW,335,0.0,-999.0,96,0.00,,,0.49,Wunderground v.1.15,2013-08-20 03:53:00,
2013-08-19 23:58:00,74.5,73.3,30.04,NNW,334,0.0,-999.0,96,0.00,,,0.49,Wunderground v.1.15,2013-08-20 03:58:00,